Zurück zum Katalog

STARLINK-37670

AktivKommunikationVLEO
NORAD 69530·PAYLOAD·🇺🇸 United States

Gestartet Jun 12, 2026 von Cape Canaveral Space Force Station

Loading…

Nächste Überflüge (nächste 24 Stunden)

TLE

AktuellSource: CelesTrak SupGP

Epoche: Sep 14, 2026, 22:59 UTC

1 69530C 26133Y   26257.95812500  .00035444  00000+0  10471-2 0  2571
2 69530  53.1570 255.3031 0001364  96.5648  45.9317 15.34375952    11

Verfolge STARLINK-37670 in Echtzeit mit AllMySat

Download on the App Store